Regional Weather Roundup
Issued by NWS

Home | Current Version | Previous Version | Text Only | Print | Product List | Glossary Off
Versions: 1 2 3 4 5 6 7 8 9 10 11 12 13 14 15 16 17 18 19 20 21 22 23 24 25 26 27 28 29 30 31 32 33 34 35 36 37 38 39 40 41 42 43 44 45 46 47 48 49 50

000
ASUS43 KOAX 200610
RWRNE

WEATHER ROUNDUP FOR NEBRASKA
NATIONAL WEATHER SERVICE OMAHA NE
1200 AM CST SAT DEC 20 2014

NOTES: SATELLITE DATA IS BEING USED TO AUGMENT CLOUD COVER ABOVE
       12000 FEET.
       "FAIR" INDICATES FEW OR NO CLOUDS BELOW 12,000 FEET WITH NO
       SIGNIFICANT WEATHER AND/OR OBSTRUCTIONS TO VISIBILITY.

  * THESE STATIONS DO NOT REPORT WEATHER SUCH AS RAIN...SNOW OR FOG.

NEZ001>004-019>022-054>056-200700-
NEBRASKA PANHANDLE

CITY           SKY/WX    TMP DP  RH WIND       PRES   REMARKS
SCOTTSBLUFF    PTCLDY    16  12  84 CALM      29.99S
6HR MIN TEMP:  15; 6HR MAX TEMP:  31;

ALLIANCE       PTCLDY    14  13  95 CALM      29.98R
6HR MIN TEMP:  11; 6HR MAX TEMP:  26;

CHADRON        PTCLDY    15  11  83 SW6       29.96F WCI   6
6HR MIN TEMP:  14; 6HR MAX TEMP:  29;

KIMBALL        CLEAR     23  18  81 W8        29.98F WCI  13
SIDNEY         CLEAR     18  13  80 W7        30.01R WCI   9
6HR MIN TEMP:  16; 6HR MAX TEMP:  29;

$$

NEZ057>060-069>072-079>082-200700-
SOUTHWEST NEBRASKA

CITY           SKY/WX    TMP DP  RH WIND       PRES   REMARKS
NORTH PLATTE   CLEAR     18  15  88 NW6       30.03R FOG     WCI  10
6HR MIN TEMP:  18; 6HR MAX TEMP:  31;

IMPERIAL       CLEAR     29  20  69 W10       30.03S WCI  20
6HR MIN TEMP:  28; 6HR MAX TEMP:  36;

LEXINGTON      CLEAR     23  21  95 NW6       30.03S FOG     WCI  15
MCCOOK         CLEAR     29  24  82 W10       30.04S WCI  20
6HR MIN TEMP:  26; 6HR MAX TEMP:  43;

OGALLALA       CLEAR     19  17  95 SW3       30.02S FOG
$$

NEZ005>010-023>029-035>040-094-200700-
NORTH CENTRAL NEBRASKA

CITY           SKY/WX    TMP DP  RH WIND       PRES   REMARKS
VALENTINE      CLEAR     14  12  92 SW7       29.98F WCI   4
6HR MIN TEMP:  14; 6HR MAX TEMP:  27;

AINSWORTH      CLEAR     20  17  89 W7        29.98S WCI  11
BROKEN BOW     CLEAR     27  23  85 W8        30.00R WCI  19
6HR MIN TEMP:  21; 6HR MAX TEMP:  30;

O`NEILL        FOG      N/A N/A N/A S5        30.01F VSB 1/2
THEDFORD       CLEAR     25  22  87 SW6       30.01R WCI  18
$$

NEZ041-046>049-061>064-073>077-083>087-200700-
SOUTH CENTRAL NEBRASKA

CITY           SKY/WX    TMP DP  RH WIND       PRES   REMARKS
GRAND ISLAND   FOG       32  31  96 S8        30.05S VSB 1/2 WCI  25
6HR MIN TEMP:  32; 6HR MAX TEMP:  34;

AURORA         FOG       33  33 100 S8        30.05S VSB 1/2 WCI  25
HASTINGS       FOG       31  30  96 S7        30.03S VSB 1/4 WCI  24
6HR MIN TEMP:  31; 6HR MAX TEMP:  34;

HEBRON         CLOUDY    32  31  96 S9        30.09F FOG     WCI  25
HOLDREGE       CLEAR     26  24  93 W3        30.02S
KEARNEY *      CLOUDY    25  21  86 S3        30.03S VSB 1/2
YORK           FOG       32  32 100 CALM      30.07S VSB 1/2
$$

NEZ011>018-030>034-042>045-200700-
NORTHEAST NEBRASKA

CITY           SKY/WX    TMP DP  RH WIND       PRES   REMARKS
NORFOLK        CLOUDY    34  31  88 S8        30.05F FOG     WCI  27
6HR MIN TEMP:  33; 6HR MAX TEMP:  34;

ALBION         FOG       33  31  94 S5        30.04S VSB 1   WCI  28
BLAIR          CLOUDY    32  30  93 SE8       30.11S FOG     WCI  25
COLUMBUS *     CLOUDY    34  28  80 S8        30.09S WCI  27
FREMONT        CLOUDY    33  32  97 SE7       30.12R FOG     WCI  26
TEKAMAH        CLOUDY    32  30  92 SE13      30.12F FOG     WCI  22
6HR MIN TEMP:  32; 6HR MAX TEMP:  34;

WAYNE          CLOUDY    33  30  89 S10       30.08S WCI  25
$$

NEZ050>053-065>068-078-088>093-200700-
SOUTHEAST NEBRASKA

CITY           SKY/WX    TMP DP  RH WIND       PRES   REMARKS
LINCOLN        CLOUDY    33  30  88 S10       30.12F WCI  25
6HR MIN TEMP:  33; 6HR MAX TEMP:  34;

OMAHA EPPLEY   DRIZZLE   32  29  88 SE13      30.15F FOG     WCI  22
6HR MIN TEMP:  31; 6HR MAX TEMP:  32; 6HR PCP: TRACE;

BEATRICE       CLOUDY    32  31  94 S10       30.10F WCI  24
FALLS CITY     CLOUDY    31  27  85 S9        30.17S WCI  23
6HR MIN TEMP:  30; 6HR MAX TEMP:  31;

NEBRASKA CITY  CLOUDY    30  30 100 S8        30.15S FOG     WCI  23
PLATTSMOUTH    CLOUDY    30  28  92 SE10      30.14F FOG     WCI  21
$$

NEZ044-045-051>053-067-200700-
OMAHA AREA

CITY           SKY/WX    TMP DP  RH WIND       PRES   REMARKS
OMAHA EPPLEY   DRIZZLE   32  29  88 SE13      30.15F FOG     WCI  22
6HR MIN TEMP:  31; 6HR MAX TEMP:  32; 6HR PCP: TRACE;

BLAIR          CLOUDY    32  30  93 SE8       30.11S FOG     WCI  25
FREMONT        CLOUDY    33  32  97 SE7       30.12R FOG     WCI  26
MILLARD        CLOUDY    32  30  92 SE9       30.13F FOG     WCI  24
OFFUTT AFB     CLOUDY    31  29  90 SE9       30.14S WCI  23
PLATTSMOUTH    CLOUDY    30  28  92 SE10      30.14F FOG     WCI  21
WAHOO          CLOUDY    32  30  92 S9        30.11S FOG     WCI  24
$$


USA.gov is the U.S. government's official web portal to all federal, state and local government web resources and services.